Location: ????????
(37.9452°N, 23.1472°E)
Time: 22:07:43
(UTC+00:00)

SL-14 DEB - Visible Passes

Search period start: 19 September 2024 00:00
Search period end: 29 September 2024 00:00
Orbit: 829 x 848 km, 82.6° (Epoch: 14 September)

Date Brightness Start Highest point End Pass type
(mag) Time Alt. Az. Time Alt. Az. Time Alt. Az.
19 Sep ? 01:11:45 10° SE 01:15:25 18° E 01:19:04 10° NE visible
19 Sep ? 02:52:28 12° SSW 02:57:24 50° W 03:02:47 10° N visible
20 Sep ? 00:56:43 10° ESE 00:59:44 15° E 01:02:44 10° NE visible
20 Sep ? 02:37:59 22° SSW 02:41:35 61° W 02:47:04 10° N visible
21 Sep ? 00:41:54 10° ESE 00:44:00 12° E 00:46:06 10° ENE visible
21 Sep ? 02:23:17 35° SSW 02:25:43 73° W 02:31:16 10° N visible
22 Sep ? 02:08:26 53° S 02:09:49 87° W 02:15:23 10° N visible
23 Sep ? 01:53:26 73° SE 01:53:53 78° E 01:59:25 10° N visible
23 Sep ? 03:35:12 11° W 03:36:59 12° WNW 03:39:05 10° NW visible
24 Sep ? 01:38:18 63° ENE 01:38:18 63° ENE 01:43:23 10° NNE visible
24 Sep ? 03:20:04 14° W 03:20:50 15° WNW 03:23:52 10° NW visible
25 Sep ? 01:23:02 45° NE 01:23:02 45° NE 01:27:15 10° NNE visible
25 Sep ? 03:04:48 18° WNW 03:04:48 18° WNW 03:08:20 10° NNW visible
26 Sep ? 01:07:41 33° NE 01:07:41 33° NE 01:11:03 10° NNE visible
26 Sep ? 02:49:26 20° WNW 02:49:26 20° WNW 02:52:38 10° NNW visible
27 Sep ? 00:52:13 24° NE 00:52:13 24° NE 00:54:45 10° NNE visible
27 Sep ? 02:33:57 22° NW 02:33:57 22° NW 02:36:46 10° NNW visible
28 Sep ? 00:36:39 18° NE 00:36:39 18° NE 00:38:22 10° NNE visible
28 Sep ? 02:18:23 22° NW 02:18:23 22° NW 02:20:49 10° NNW visible
